EST,Max TemperatureF,Mean TemperatureF,Min TemperatureF,Max Dew PointF,MeanDew PointF,Min DewpointF,Max Humidity, Mean Humidity, Min Humidity, Max Sea Level PressureIn, Mean Sea Level PressureIn, Min Sea Level PressureIn, Max VisibilityMiles, Mean VisibilityMiles, Min VisibilityMiles, Max Wind SpeedMPH, Mean Wind SpeedMPH, Max Gust SpeedMPH,PrecipitationIn, CloudCover, Events, WindDirDegrees
2012-12-1,57,42,27,37,31,25,94,78,40,30.44,30.36,30.30,10,8,3,0,0,,0.00,1,,-1
2012-12-2,62,44,28,50,39,27,93,83,58,30.37,30.23,30.12,10,7,3,0,0,,0.00,3,Rain,-1
2012-12-3,70,56,43,57,50,42,94,85,58,30.28,30.23,30.19,10,6,0,0,0,,0.01,6,Fog-Rain,-1
2012-12-4,74,56,37,59,45,35,95,72,37,30.25,30.16,30.02,10,6,0,12,1,,0.00,6,Fog-Rain,185
2012-12-5,64,48,29,51,34,26,87,56,34,30.32,30.21,30.04,10,10,10,18,9,25,0.01,1,Rain,304
2012-12-6,47,34,21,32,27,19,91,79,50,30.37,30.27,30.16,10,9,7,0,0,,0.00,1,,-1
2012-12-7,45,40,35,37,34,29,88,78,69,30.16,30.06,29.97,10,10,5,0,0,,0.02,6,Rain,-1
2012-12-8,68,52,36,53,43,34,92,80,51,30.05,29.94,29.87,10,7,0,13,1,17,0.15,7,Fog-Rain,239
2012-12-9,54,50,45,52,48,43,94,92,90,30.17,30.07,29.93,10,4,0,5,0,,0.61,8,Fog-Rain,334
2012-12-10,61,52,42,56,47,34,95,84,62,29.91,29.71,29.58,10,6,0,17,2,25,0.10,7,Fog-Rain,180
2012-12-11,45,38,30,37,30,26,89,70,55,30.24,30.04,29.78,10,10,7,14,2,,0.01,5,,291
2012-12-12,39,33,27,30,27,24,92,83,58,30.45,30.38,30.25,10,8,4,0,0,,0.00,0,,-1
2012-12-13,47,34,21,29,24,19,93,79,41,30.49,30.42,30.33,10,7,4,0,0,,0.00,0,,-1
2012-12-14,60,40,20,32,24,16,92,72,18,30.33,30.28,30.21,10,8,4,8,0,,0.00,0,,20
2012-12-15,48,38,27,38,30,24,90,74,45,30.28,30.18,30.04,10,10,7,0,0,,0.00,2,Rain,-1
2012-12-16,49,42,36,43,39,34,92,84,73,30.04,29.91,29.84,10,8,3,0,0,,0.00,5,,-1
2012-12-17,50,42,33,45,39,32,95,90,81,29.85,29.74,29.57,10,4,0,0,0,,0.17,6,Fog-Rain,-1
2012-12-18,54,46,38,45,36,30,94,69,51,29.83,29.69,29.55,10,8,0,26,5,40,0.03,5,Fog-Rain,266
2012-12-19,55,44,33,36,33,29,92,63,42,30.18,29.99,29.80,10,10,5,21,4,31,0.00,3,,273
2012-12-20,46,38,31,41,35,30,94,88,62,30.18,29.91,29.44,10,5,2,7,0,17,0.31,4,Rain,195
2012-12-21,43,38,34,38,26,21,91,64,54,29.53,29.46,29.41,10,8,3,32,10,44,0.01,8,Snow,254
2012-12-22,39,34,31,24,19,13,59,49,40,30.07,29.97,29.78,10,10,7,30,15,40,0.01,4,Snow,269
2012-12-23,55,40,24,27,20,14,78,47,25,30.05,29.96,29.86,10,10,10,14,2,25,0.00,0,,271
2012-12-24,34,30,26,33,29,23,94,89,76,30.02,29.95,29.88,10,5,0,5,0,,0.00,5,Snow,89
2012-12-25,46,38,31,36,33,30,96,81,62,30.21,30.08,29.90,10,7,2,9,2,,0.18,6,,102
2012-12-26,38,34,29,32,29,26,94,88,78,30.20,29.86,29.57,10,4,0,7,1,,0.00,8,Snow,321
2012-12-27,40,32,24,30,24,22,93,67,57,30.09,29.86,29.56,10,9,2,29,5,36,0.02,7,,291
2012-12-28,41,32,24,28,25,22,88,74,52,30.14,30.08,29.99,10,9,4,8,1,13,0.18,2,,318
2012-12-29,45,38,31,34,29,25,94,78,55,30.00,29.77,29.59,10,6,1,17,2,32,0.29,8,Snow,301
2012-12-30,36,30,23,28,20,16,76,61,48,30.32,30.21,29.91,10,10,7,18,4,32,0.00,4,Snow,292
2012-12-31,46,32,17,27,19,13,88,61,27,30.31,30.15,30.00,10,10,7,22,2,33,0.00,1,,274